Location: Bamobli
(6.6379°N, 10.9396°W)
Time: 21:42:28
(UTC+00:00)

Envisat - Pass Details

Date: 09 March 2021
Orbit: 764 x 766 km, 98.1° (Epoch: 16 April)

Event Time Altitude Azimuth Distance (km) Brightness Sun altitude
Rises 06:25:46 0° 0° (N) 3,216 6.2 -7.6°
Reaches altitude 10° 06:28:09 10° 354° (N) 2,291 5.4 -7.0°
Maximum altitude 06:32:57 44° 283° (WNW) 1,039 3.3 -5.8°
Drops below altitude 10° 06:37:45 10° 211° (SSW) 2,295 5.2 -4.6°
Sets 06:40:08 0° 205° (SSW) 3,221 6.0 -4.0°
